TimeHST,TemperatureF,Dew PointF,Humidity,Sea Level PressureIn,VisibilityMPH,Wind Direction,Wind SpeedMPH,Gust SpeedMPH,PrecipitationIn,Events,Conditions,WindDirDegrees,DateUTC
12:54 AM,71.1,68.0,90,30.08,6.0,Calm,Calm,-,N/A,,Clear,0,2012-10-10 10:54:00
1:54 AM,69.1,64.9,87,30.07,10.0,Calm,Calm,-,N/A,,Clear,0,2012-10-10 11:54:00
2:54 AM,69.1,66.0,90,30.06,7.0,Calm,Calm,-,N/A,,Clear,0,2012-10-10 12:54:00
3:54 AM,69.1,66.9,93,30.05,8.0,Calm,Calm,-,N/A,,Clear,0,2012-10-10 13:54:00
4:54 AM,68.0,66.0,93,30.07,5.0,NW,3.5,-,N/A,,Partly Cloudy,320,2012-10-10 14:54:00
5:54 AM,68.0,66.0,93,30.08,4.0,Calm,Calm,-,N/A,,Scattered Clouds,0,2012-10-10 15:54:00
6:54 AM,72.0,70.0,93,30.08,5.0,NNW,5.8,-,N/A,,Scattered Clouds,330,2012-10-10 16:54:00
7:54 AM,75.9,72.0,87,30.09,4.0,North,4.6,-,N/A,,Scattered Clouds,350,2012-10-10 17:54:00
8:54 AM,81.0,69.1,67,30.10,10.0,North,5.8,-,N/A,,Scattered Clouds,10,2012-10-10 18:54:00
9:54 AM,82.9,69.1,63,30.10,10.0,NE,12.7,17.3,N/A,,Clear,50,2012-10-10 19:54:00
10:54 AM,84.9,68.0,57,30.08,10.0,NNE,9.2,19.6,N/A,,Scattered Clouds,30,2012-10-10 20:54:00
11:54 AM,86.0,66.9,53,30.06,10.0,NNE,10.4,20.7,N/A,,Scattered Clouds,20,2012-10-10 21:54:00
12:54 PM,82.9,66.9,58,30.04,10.0,North,16.1,24.2,N/A,,Scattered Clouds,10,2012-10-10 22:54:00
1:54 PM,84.0,68.0,58,30.02,10.0,NNE,10.4,19.6,N/A,,Scattered Clouds,20,2012-10-10 23:54:00
2:54 PM,84.9,66.9,55,30.01,10.0,Variable,5.8,-,N/A,,Partly Cloudy,0,2012-10-11 00:54:00
3:54 PM,84.9,66.0,53,30.01,10.0,SW,5.8,-,N/A,,Scattered Clouds,220,2012-10-11 01:54:00
4:54 PM,80.1,70.0,71,30.03,10.0,North,8.1,16.1,N/A,,Mostly Cloudy,10,2012-10-11 02:54:00
5:54 PM,77.0,71.1,82,30.05,10.0,NNE,10.4,20.7,N/A,,Mostly Cloudy,20,2012-10-11 03:54:00
6:54 PM,77.0,71.1,82,30.06,10.0,NNE,12.7,23.0,N/A,,Scattered Clouds,30,2012-10-11 04:54:00
7:54 PM,75.9,71.1,85,30.09,10.0,NNE,10.4,18.4,0.00,,Partly Cloudy,30,2012-10-11 05:54:00
8:54 PM,75.9,72.0,87,30.09,7.0,NNE,10.4,19.6,0.00,Rain,Light Rain,30,2012-10-11 06:54:00
9:54 PM,75.0,71.1,87,30.11,10.0,NE,8.1,-,0.00,,Clear,50,2012-10-11 07:54:00
10:54 PM,75.9,71.1,85,30.11,10.0,NE,12.7,18.4,N/A,,Partly Cloudy,50,2012-10-11 08:54:00
11:54 PM,75.0,69.1,82,30.10,10.0,Calm,Calm,-,N/A,,Clear,0,2012-10-11 09:54:00